Theta_e
335 332 330 330 332 334 335 335 334 333 334 335 334 334 335 335 335 336 336 336 336 336 336 336 336 336 336 335 334 334 334 331 329 331 330 330 329 329 328 320 312 311 315 323 330 332 332 332 333 334 335 334 333 333 333 333 332 331 330 328 326 326
333 331 331 332 334 334 335 336 335 335 335 335 335 335 336 336 335 335 335 336 335 334 333 332 331 332 333 334 334 334 333 331 329 331 331 331 330 329 328 321 314 313 317 327 332 332 332 333 334 335 335 334 333 333 332 332 332 330 327 325 324 326
332 332 332 334 335 335 336 337 336 336 336 336 335 335 336 337 335 334 334 334 333 333 332 331 332 331 330 331 333 334 334 331 329 330 331 331 331 329 327 321 316 317 321 329 332 331 333 334 335 335 335 335 333 332 332 332 332 330 327 323 322 325
333 333 332 333 335 335 336 337 337 336 337 336 335 335 336 336 336 335 333 332 334 337 335 335 338 336 333 332 330 330 332 331 329 329 330 331 331 330 328 322 319 324 328 331 332 332 332 332 333 334 335 335 334 333 333 333 332 330 328 324 323 323
336 336 333 332 334 335 336 336 336 336 337 336 334 335 335 335 336 335 333 333 336 340 339 337 339 338 337 336 334 331 329 330 330 328 329 330 331 331 329 325 322 328 331 331 332 332 332 332 333 334 334 334 334 334 333 333 331 330 329 326 324 323
339 339 335 332 333 335 336 336 336 336 336 335 334 334 334 334 335 335 335 335 337 340 340 339 339 339 338 338 338 335 329 328 330 329 328 329 330 330 330 329 325 326 329 331 332 332 332 333 334 334 334 333 334 334 333 333 331 330 329 327 325 323
340 340 338 334 333 335 336 337 336 336 336 335 334 333 332 332 335 336 336 337 338 338 340 340 340 339 338 338 338 336 330 326 328 329 328 327 329 329 330 330 329 328 328 331 332 333 335 335 334 334 334 333 333 335 335 333 332 331 330 328 326 322
341 341 340 336 333 334 335 337 337 337 336 336 335 333 331 332 335 337 337 337 337 338 339 339 340 339 338 338 338 337 333 327 324 328 329 328 327 328 329 331 330 330 330 332 333 334 335 336 336 335 335 334 333 334 335 333 332 331 330 328 324 321
342 341 341 338 334 334 334 335 337 338 337 337 337 335 334 334 335 336 337 337 337 337 338 339 339 339 338 338 338 337 336 331 323 324 328 329 329 327 328 331 331 331 331 332 332 332 334 335 336 335 334 335 334 334 334 333 333 331 330 327 322 324
342 341 340 339 337 335 335 335 336 337 337 337 338 337 337 337 337 336 337 337 337 337 337 338 338 338 339 338 338 337 337 334 328 326 327 328 329 329 329 332 334 334 334 334 333 332 335 336 335 334 334 334 334 333 333 333 333 331 330 326 324 327
342 342 340 340 339 337 337 337 337 337 338 339 339 338 338 338 338 338 338 337 338 338 337 337 338 338 339 338 338 338 337 336 334 331 329 328 328 328 330 333 335 335 335 336 335 335 336 336 334 334 334 334 333 333 333 332 332 331 330 327 326 328
343 342 341 341 340 339 339 339 339 339 339 340 339 339 339 339 339 339 338 338 338 338 337 337 337 338 338 338 338 338 338 336 335 334 332 331 329 329 329 331 333 334 335 335 336 337 337 336 335 333 333 333 333 333 333 332 331 331 330 328 328 329
342 342 342 341 341 340 340 339 339 339 340 340 340 339 339 339 339 339 338 338 338 338 338 338 338 338 338 338 338 338 338 337 336 335 334 333 332 331 331 330 331 332 333 335 336 337 336 337 336 334 333 333 333 333 332 331 331 331 330 330 330 329
342 342 342 341 341 341 341 340 339 340 340 339 339 339 339 339 339 338 338 337 337 337 337 338 338 338 338 338 338 338 338 338 337 336 335 334 333 333 333 333 332 331 332 335 336 336 336 336 336 335 334 333 333 333 332 332 332 331 331 330 330 329
342 342 342 341 341 340 340 339 339 340 340 339 339 338 339 339 339 339 338 337 337 337 336 337 338 338 338 338 338 338 337 337 337 336 336 335 334 334 334 334 333 332 332 334 336 336 336 336 336 336 335 332 332 333 332 332 332 331 331 331 331 330
342 341 340 340 339 339 339 339 340 341 340 340 339 339 339 339 340 339 338 337 337 337 337 336 337 337 338 337 337 337 337 337 337 337 337 336 335 335 334 334 333 332 332 333 335 336 336 336 336 336 335 333 332 332 332 332 332 332 331 331 331 331
340 340 339 339 338 339 339 340 341 341 341 341 340 340 340 340 340 339 338 337 336 336 336 336 336 336 337 337 337 337 338 338 338 337 337 336 336 335 335 334 333 332 332 332 334 335 335 335 335 335 335 333 331 332 332 332 332 332 331 331 331 331
341 340 340 340 339 340 341 341 341 340 340 340 339 339 340 340 339 339 338 337 336 335 335 335 336 336 337 338 338 338 337 337 337 337 337 336 336 336 336 335 334 333 332 332 332 333 334 334 335 335 335 332 331 332 331 331 333 332 332 331 331 331
342 342 343 342 341 341 341 340 339 339 339 339 339 339 339 339 340 339 339 338 337 336 335 334 334 334 335 336 338 337 337 337 336 337 337 337 336 336 336 335 335 334 333 333 333 332 333 333 334 334 334 332 331 331 331 332 333 332 331 331 331 331
342 343 342 342 342 341 340 339 338 338 338 339 339 339 338 339 340 339 339 339 338 337 336 335 334 334 334 335 337 337 337 337 337 337 338 338 337 336 336 335 335 335 334 334 333 333 333 333 333 333 333 332 331 331 331 332 332 332 331 331 331 331
341 341 341 340 340 340 340 340 339 339 339 339 339 339 338 338 339 338 339 339 338 337 336 335 336 336 336 336 336 337 337 337 337 338 338 338 338 337 337 336 335 335 335 334 334 334 333 333 333 333 333 332 331 329 330 332 333 333 332 331 332 332
338 338 338 339 339 339 339 339 339 339 340 340 339 339 339 338 337 337 337 338 337 336 336 335 336 336 336 337 337 338 337 337 338 338 338 337 337 337 337 337 336 335 334 334 335 335 334 333 332 332 331 331 330 329 329 331 332 333 332 332 332 332
337 338 338 338 338 339 338 339 339 339 340 340 340 340 339 338 337 337 337 337 336 336 336 336 336 337 337 338 338 338 338 337 338 338 338 337 337 337 337 337 336 335 334 334 334 334 334 333 332 331 330 330 332 332 331 330 331 332 332 332 332 332
336 337 337 338 338 338 338 338 339 339 339 340 340 340 339 338 337 337 337 337 337 336 337 337 337 337 337 337 337 337 337 337 337 337 337 337 336 336 336 336 336 335 333 333 333 332 333 333 333 332 330 330 331 332 334 332 329 331 332 332 332 332
334 335 336 336 337 337 338 338 338 339 338 338 339 338 338 337 337 337 337 337 337 337 337 336 336 336 336 336 335 335 335 335 335 335 336 335 335 334 334 334 335 335 333 332 330 330 331 332 333 333 331 330 331 332 334 332 330 331 331 331 332 332
332 333 333 334 335 336 336 337 336 336 336 336 336 336 336 335 336 336 336 337 337 336 336 336 336 335 335 335 334 334 334 334 333 333 334 334 332 332 332 332 333 333 331 331 330 330 331 330 332 333 331 331 331 332 332 331 333 335 332 331 332 332
329 330 331 332 333 334 335 334 333 333 333 333 333 333 333 333 334 334 335 335 335 335 335 335 335 334 334 333 333 333 333 333 333 332 332 332 331 331 332 332 332 332 330 330 330 330 330 330 331 332 332 331 329 329 330 330 333 336 335 333 332 333
327 327 328 329 330 331 331 331 331 331 330 330 330 330 331 331 332 332 333 333 333 333 333 333 333 333 333 333 333 333 333 332 332 332 331 331 331 332 332 332 332 332 331 331 330 330 330 330 329 330 331 331 329 329 329 329 330 331 333 334 333 332
324 325 325 326 327 327 328 328 329 328 328 328 328 329 329 329 329 329 330 330 331 331 331 331 332 332 332 333 333 333 332 331 331 331 331 331 331 331 331 332 332 332 331 331 331 330 329 329 329 330 330 330 330 329 329 328 328 328 329 332 333 333
323 323 323 323 323 324 324 325 325 325 325 326 326 327 327 326 326 326 327 327 327 328 328 329 330 330 331 331 332 332 332 331 331 331 331 331 331 331 331 332 332 333 332 332 331 331 330 330 330 330 330 330 330 329 329 328 328 328 328 329 331 332
322 321 320 320 320 321 321 321 321 321 322 323 324 324 324 323 323 324 324 324 324 324 325 327 328 328 329 329 329 330 330 331 331 331 331 331 331 332 332 332 332 333 333 332 332 332 332 331 331 330 330 330 330 330 329 328 329 328 328 328 330 331
321 320 319 319 320 320 320 320 319 318 319 320 320 320 320 320 321 322 322 321 321 322 324 326 326 326 327 327 328 329 329 329 330 330 330 330 330 330 331 332 332 332 333 332 332 332 332 332 331 330 330 329 330 331 330 329 329 329 329 329 329 330
321 319 318 318 319 319 320 320 319 318 318 318 318 318 318 319 319 319 319 319 320 320 321 323 323 323 323 325 326 327 328 329 329 329 329 329 329 329 329 330 330 331 332 332 332 332 332 332 331 330 330 329 330 331 330 330 330 329 329 329 329 329
320 318 317 317 318 318 318 318 318 318 318 317 317 317 317 318 318 318 317 317 318 318 319 319 319 320 320 322 323 325 326 326 326 327 328 328 329 329 329 329 329 329 329 330 331 331 331 332 332 331 330 330 330 330 330 330 330 329 328 328 328 328
318 317 316 316 316 316 316 316 316 317 317 317 315 315 315 316 317 317 316 315 315 316 316 316 317 317 318 319 320 321 322 322 322 324 326 327 328 328 329 329 329 328 328 328 329 330 331 331 331 330 329 329 330 330 330 331 330 329 328 328 329 329
317 316 315 315 315 315 315 314 314 315 315 314 314 313 313 314 314 315 314 313 313 313 313 314 315 315 316 316 316 317 318 318 319 321 322 324 325 326 327 328 328 328 328 328 328 329 329 330 330 330 329 329 330 329 330 331 330 329 329 329 329 329
315 314 314 314 314 314 313 313 313 313 313 312 312 312 312 312 311 312 312 312 311 311 311 312 312 313 313 313 313 313 314 315 317 318 319 320 321 321 322 324 324 325 326 327 327 328 328 328 329 329 328 328 329 329 329 330 330 330 330 330 330 329
Wind_Speed
15 14 12 12 12 12 12 10 10 11 11 11 10 9 8 7 7 7 8 8 8 7 5 5 5 5 4 4 4 3 5 7 6 5 4 4 4 4 5 6 7 10 16 19 18 14 11 10 10 10 7 6 11 12 10 8 7 6 5 6 7 9
14 13 12 12 12 13 12 10 10 11 10 10 9 9 7 6 6 6 7 7 6 4 3 3 4 4 5 5 5 4 5 7 7 5 4 4 4 3 4 5 7 10 16 18 16 13 11 10 9 9 6 4 7 9 9 6 4 4 4 5 7 9
14 13 13 12 12 13 12 11 11 11 10 10 9 8 7 6 4 5 5 5 5 3 3 4 3 2 3 5 6 6 6 8 8 6 5 4 3 3 4 5 7 12 16 18 16 13 11 9 9 9 6 3 6 8 7 5 3 3 3 4 6 8
14 13 13 12 12 12 12 11 11 10 10 10 9 8 7 6 4 3 4 5 5 4 4 5 4 2 2 2 4 5 7 9 10 8 6 4 3 3 4 5 9 14 17 17 15 13 11 9 8 9 5 1 5 7 6 5 4 3 3 3 4 6
13 12 11 11 12 11 11 11 11 10 9 9 8 8 7 6 6 5 5 6 7 6 5 5 4 5 5 3 3 4 7 10 11 10 8 6 5 4 4 6 10 16 18 17 16 13 10 9 7 7 4 2 4 7 7 6 4 3 2 3 3 5
13 12 11 11 11 11 11 11 11 10 9 9 8 8 8 8 7 7 7 8 9 7 5 5 6 7 7 6 5 3 5 9 12 12 10 8 6 5 6 6 9 14 17 17 16 11 6 5 5 5 5 6 5 7 7 7 6 4 2 2 3 4
14 12 11 11 12 12 11 11 10 10 10 9 9 9 9 10 9 8 8 9 10 8 5 5 8 10 10 8 7 4 3 7 12 13 11 9 7 6 7 7 8 11 14 14 13 8 5 5 5 6 7 9 9 9 10 10 9 6 3 2 3 4
15 13 11 11 12 12 12 11 11 10 10 10 10 10 10 11 11 10 10 11 11 9 7 7 9 12 12 11 9 6 4 5 10 13 13 11 9 8 8 8 8 9 11 12 10 9 9 8 10 10 10 12 13 11 11 12 11 8 5 3 4 4
16 15 12 11 12 12 12 12 11 11 11 11 11 11 10 11 11 12 13 13 13 11 10 10 11 13 14 13 11 9 7 5 7 11 14 13 12 10 9 9 8 8 10 11 11 11 10 10 13 12 12 13 14 11 11 13 12 10 7 5 6 5
15 14 12 11 11 11 11 12 12 11 11 11 11 11 11 11 13 15 15 15 14 13 13 13 14 14 14 14 13 12 10 8 7 9 12 14 14 13 11 10 9 9 10 11 11 11 12 13 14 12 13 15 15 11 10 13 13 11 9 7 7 5
12 12 11 11 11 12 11 12 13 12 11 10 10 11 12 13 14 16 16 16 15 15 15 16 16 15 14 14 14 14 14 12 10 10 11 12 13 14 14 13 12 12 13 13 12 12 14 14 12 11 13 14 14 12 10 12 13 12 10 9 8 6
11 10 10 10 10 11 11 12 13 13 12 11 11 12 13 14 15 15 15 15 15 16 16 17 16 15 14 14 13 14 15 16 15 13 12 12 12 14 15 15 15 15 16 16 15 16 16 15 12 11 11 11 12 12 11 12 13 12 11 10 9 6
12 11 10 9 8 9 10 12 13 14 12 12 13 13 13 14 15 14 15 14 14 15 16 17 16 16 15 14 13 13 15 17 17 16 14 13 13 14 16 17 17 18 19 18 18 19 19 17 15 14 12 10 10 11 12 12 12 11 11 11 10 8
10 10 10 9 8 9 9 10 12 12 12 12 13 13 13 14 14 14 15 15 14 15 17 16 15 16 15 14 13 14 15 16 17 17 17 17 16 16 17 17 17 18 19 19 20 20 20 18 16 15 15 12 9 10 10 11 12 11 12 12 10 9
7 7 8 9 8 9 8 8 9 10 10 11 11 11 12 12 12 14 15 16 16 16 18 18 16 16 16 15 14 14 15 15 15 17 19 19 19 19 19 18 18 18 18 18 19 20 19 19 17 17 17 15 12 10 8 8 10 11 13 13 11 10
5 5 7 7 7 7 7 7 7 7 8 9 10 10 10 11 11 12 14 15 15 16 17 16 15 16 16 15 16 16 15 14 13 15 17 19 21 21 21 21 20 19 18 17 17 19 19 18 19 19 19 18 16 15 11 7 10 13 15 14 13 11
5 5 6 6 6 7 7 6 6 5 6 8 8 8 9 11 11 11 13 13 13 14 15 15 14 15 15 15 16 16 15 14 14 15 16 19 20 22 22 22 22 21 20 19 18 19 19 18 19 20 21 20 17 17 15 11 11 15 17 17 15 13
7 7 7 6 7 8 7 5 6 5 5 6 6 7 8 10 11 10 11 11 11 12 13 14 15 15 14 15 15 16 16 16 17 17 18 19 20 22 22 22 23 22 21 20 20 20 20 20 19 20 22 19 15 15 16 14 13 16 18 17 16 15
9 8 6 5 7 7 7 6 7 5 6 7 7 8 9 10 10 10 10 10 10 12 12 13 14 15 15 16 16 17 17 17 19 20 20 20 21 21 22 22 23 22 22 21 21 21 21 20 19 20 21 18 16 17 17 16 16 17 19 18 17 17
10 8 6 5 6 5 6 8 7 7 9 9 8 9 10 10 10 10 10 10 11 12 13 13 14 15 16 17 18 18 18 19 19 20 20 21 22 22 22 22 22 22 22 22 22 21 19 18 18 19 20 17 18 19 19 20 18 17 18 19 18 19
12 9 7 6 5 4 4 5 6 7 9 9 8 8 9 10 10 10 10 10 11 12 12 13 13 14 16 17 18 19 20 20 20 21 23 23 23 23 22 22 22 22 21 21 23 22 20 18 15 15 16 14 15 16 17 20 19 18 19 20 19 20
13 11 9 7 6 5 4 3 4 5 5 7 7 6 7 8 10 10 10 10 10 10 10 10 12 14 16 18 19 19 20 20 21 22 21 21 21 21 22 22 23 23 21 20 22 23 21 17 13 13 10 7 8 12 16 19 21 20 20 22 20 20
15 13 11 9 7 6 4 3 3 3 2 3 4 3 4 5 7 8 9 10 10 10 10 10 11 14 16 17 19 21 22 23 23 23 21 20 21 22 23 24 23 22 20 20 22 23 21 19 17 13 6 3 3 5 10 15 21 24 23 23 23 22
17 15 12 9 8 6 5 4 3 2 1 2 1 2 3 4 5 6 7 8 9 10 10 11 12 14 16 16 18 21 23 24 24 24 24 24 25 25 25 26 25 23 21 20 21 23 22 23 23 15 5 1 1 1 4 8 14 23 26 24 25 25
16 15 13 10 9 8 7 7 6 5 4 4 3 4 6 7 7 7 7 7 9 8 8 9 11 13 13 13 16 20 22 23 23 24 26 26 25 26 26 27 27 25 24 22 22 24 23 23 26 25 16 6 1 1 3 3 5 13 22 26 26 26
15 14 13 11 10 10 10 11 11 12 12 11 11 10 10 10 10 10 9 9 9 9 9 9 10 11 12 12 14 17 20 22 22 22 25 26 25 25 26 27 27 25 24 24 25 24 24 25 26 29 28 20 14 9 3 3 3 3 10 20 25 26
15 14 13 11 11 11 12 13 14 15 14 14 13 13 13 12 11 11 11 11 11 12 13 12 11 11 12 12 12 14 16 17 19 20 23 25 23 23 25 26 27 25 24 26 26 24 26 27 23 25 31 27 23 19 10 6 5 2 2 8 16 23
13 13 13 12 12 13 13 13 14 14 14 14 13 13 13 12 11 11 11 12 12 13 14 14 13 13 14 13 12 13 13 15 17 19 21 22 23 24 25 25 26 26 24 23 24 26 28 26 22 24 28 27 25 24 19 12 8 5 2 1 7 14
13 13 13 13 13 14 13 13 13 13 13 14 13 13 13 12 12 13 13 13 13 14 13 13 13 14 15 15 15 15 14 15 17 18 18 19 20 21 22 23 24 24 22 21 23 26 28 27 27 27 26 25 24 24 23 21 16 10 5 4 3 4
15 15 15 15 15 16 14 13 13 13 13 13 13 12 12 13 14 15 15 15 15 15 15 14 13 14 15 15 15 15 14 15 15 16 16 17 18 20 20 21 22 22 21 20 21 22 24 26 28 30 28 24 21 19 18 16 16 14 10 8 6 4
15 16 16 16 17 19 19 18 18 17 15 13 12 12 13 15 16 16 17 17 16 16 16 15 15 16 16 16 17 16 16 15 15 15 16 17 18 19 19 19 20 21 21 21 20 21 23 25 25 28 28 25 24 23 19 16 18 19 14 9 7 5
14 16 18 18 18 18 19 19 20 20 18 16 14 13 15 16 16 17 18 17 17 17 17 15 15 17 17 17 18 18 18 18 17 17 17 18 18 18 19 20 20 21 21 21 21 22 23 23 24 27 27 27 28 28 27 25 24 23 21 17 11 5
16 17 20 21 20 19 19 18 19 20 20 19 18 17 17 17 17 17 17 18 18 19 18 16 16 18 18 18 19 19 20 19 18 18 19 20 19 18 18 19 20 21 22 22 22 22 23 24 23 24 27 28 29 27 27 27 25 23 24 22 15 8
17 19 21 22 22 22 22 20 20 19 18 19 20 20 19 18 17 17 18 18 18 18 18 18 18 19 19 18 18 18 18 19 19 19 19 20 20 19 18 18 19 20 21 23 22 22 23 24 25 24 25 27 28 27 27 27 25 22 23 23 20 14
20 21 22 23 23 23 23 22 21 21 19 19 20 20 19 18 16 17 18 18 18 18 18 18 18 18 19 19 19 18 18 19 19 19 20 20 21 21 20 19 20 21 21 21 20 21 21 23 25 25 25 26 27 27 29 29 27 23 24 25 25 24
22 22 23 23 23 24 24 23 23 22 22 21 21 21 20 19 18 18 19 19 18 18 17 17 17 18 19 19 20 19 18 19 19 20 21 21 22 22 22 21 23 23 23 22 20 20 21 21 22 23 24 26 26 27 29 30 27 25 27 28 27 26
23 23 23 23 23 24 24 24 24 23 23 22 22 22 21 21 20 19 20 20 19 19 18 18 18 18 19 19 20 20 20 19 18 21 22 21 22 23 21 21 22 23 24 23 21 21 20 20 21 21 22 25 26 27 29 28 28 28 29 30 28 25
Wind_Direction
166 165 169 167 164 160 154 155 154 155 152 154 160 164 165 161 164 162 165 169 170 174 182 206 219 224 226 232 237 237 217 195 184 176 161 145 134 119 100 102 117 138 154 158 154 149 141 126 110 96 89 124 149 158 161 156 145 138 138 138 142 137
171 169 172 168 165 158 154 158 156 156 151 150 154 159 159 146 145 147 158 169 168 173 181 204 216 223 230 228 222 217 215 206 196 187 174 155 143 133 110 110 124 140 153 156 153 149 139 128 113 95 87 127 154 164 163 157 151 144 140 146 150 141
173 173 174 170 168 159 157 164 162 162 159 157 158 161 160 145 140 140 149 157 156 167 164 158 148 158 227 225 221 213 207 209 207 199 188 169 152 146 119 116 132 140 150 154 152 148 141 134 125 110 97 117 160 169 171 172 170 150 134 140 151 147
172 171 174 172 169 163 161 166 167 168 166 165 163 164 163 154 153 152 155 164 170 182 179 165 158 174 211 221 229 226 216 211 212 207 198 186 168 161 137 125 137 141 146 149 148 144 142 141 140 132 117 125 175 178 185 191 187 155 128 126 142 152
170 168 171 171 166 164 163 167 174 174 173 171 169 169 170 169 170 173 173 182 194 208 209 201 211 217 216 227 242 248 234 219 216 210 201 194 182 177 164 141 143 148 147 148 148 143 143 145 146 145 152 236 206 194 202 201 199 172 129 117 140 162
172 170 169 170 166 167 166 170 178 178 179 179 179 179 179 180 180 182 183 192 205 216 226 229 240 238 231 228 233 257 246 227 221 214 204 199 193 186 183 167 155 156 156 159 160 158 160 168 175 172 196 255 240 215 221 218 210 191 164 131 148 165
178 175 172 172 168 171 172 172 176 180 184 183 186 189 188 188 189 195 199 206 213 219 233 241 244 246 243 233 230 240 239 228 222 220 214 206 203 196 193 191 179 173 173 177 181 194 239 251 254 239 233 260 257 236 232 226 217 203 196 166 156 165
183 180 176 176 175 174 176 175 177 183 188 190 195 193 193 195 197 207 215 219 220 222 229 236 236 240 246 245 241 237 230 229 220 220 221 216 213 206 201 202 202 203 200 205 216 237 262 272 282 272 251 256 253 239 230 224 218 210 208 192 170 162
185 182 178 181 183 182 182 183 185 190 192 197 205 202 199 204 210 218 225 227 224 222 221 224 226 231 240 246 249 248 241 235 220 216 219 221 222 219 213 209 213 224 227 233 243 257 271 282 293 275 243 244 242 233 230 223 218 216 212 194 178 172
184 185 185 187 192 194 195 195 195 202 205 204 209 213 212 214 221 227 234 237 232 228 223 220 223 227 233 239 246 253 251 244 226 216 222 224 225 228 227 223 229 236 240 249 255 265 275 284 292 267 228 228 229 228 233 222 217 218 214 198 183 184
185 191 196 197 200 203 206 208 208 213 220 218 218 221 221 224 229 234 242 246 241 238 234 228 225 225 226 230 239 245 249 248 238 227 230 231 228 232 235 237 245 247 247 253 259 266 271 277 279 249 217 217 219 223 227 218 215 216 215 205 191 194
189 196 204 209 209 211 215 217 219 220 225 230 233 234 232 234 237 239 245 250 248 245 243 238 232 228 222 220 229 239 245 247 245 239 236 235 234 235 238 243 249 254 256 258 258 259 263 270 269 248 223 217 216 220 223 214 212 214 214 207 198 203
196 200 207 214 217 217 219 222 224 223 226 232 238 241 240 242 245 245 249 253 253 250 248 244 240 239 233 224 227 238 244 247 247 243 239 238 238 239 241 245 249 257 263 259 255 253 257 265 267 256 244 232 216 213 217 214 215 217 213 207 206 208
191 198 207 215 219 219 221 225 226 224 227 233 236 237 237 241 248 254 259 259 259 258 256 253 246 244 245 241 239 242 245 247 247 244 242 241 240 243 246 250 253 258 264 262 256 254 255 259 262 258 253 245 221 200 204 211 218 222 214 208 209 208
177 191 205 215 220 220 221 221 223 224 226 230 230 230 232 238 248 261 268 268 267 266 264 259 253 249 248 250 251 249 249 249 249 247 247 247 245 246 248 253 256 255 259 263 260 256 254 255 256 256 254 247 227 203 199 206 213 220 218 212 210 210
184 197 199 204 209 206 206 209 218 226 225 225 227 232 238 247 257 266 275 279 277 270 264 259 256 253 249 250 253 254 257 259 258 254 253 255 253 251 251 254 256 252 253 258 259 256 255 256 256 256 254 246 232 215 214 218 215 218 218 216 214 213
163 170 167 168 175 172 177 200 224 229 227 227 230 241 252 263 271 274 277 286 287 275 265 260 259 257 251 249 250 255 262 267 266 262 257 257 257 256 256 256 255 250 248 252 257 257 257 257 257 258 254 244 234 225 222 225 221 216 214 214 215 214
137 136 144 148 152 156 162 200 240 234 221 233 241 257 268 272 278 278 276 284 294 290 277 267 263 264 262 257 255 258 265 269 270 267 259 254 254 256 258 258 255 250 247 250 254 256 258 258 258 259 254 239 232 235 230 226 220 214 213 213 215 219
126 121 137 144 151 166 175 201 242 232 215 241 254 265 276 275 274 277 278 281 289 291 288 278 269 270 273 273 269 266 266 268 268 265 260 255 254 254 256 258 257 253 251 250 251 253 256 259 259 259 257 247 242 246 240 232 223 218 220 221 221 223
110 111 129 138 151 181 189 196 225 222 219 243 256 262 274 274 273 276 278 281 283 284 284 280 274 272 273 276 276 274 272 270 268 266 265 266 265 265 264 264 264 262 257 253 251 251 253 256 258 257 258 257 247 241 239 235 229 227 227 227 227 223
101 107 117 121 131 146 167 183 201 207 215 235 249 261 273 275 280 284 281 281 284 284 283 280 276 273 272 274 275 274 273 271 268 268 268 270 272 273 274 272 271 269 264 258 253 251 251 250 251 253 256 257 248 242 243 238 230 231 230 226 228 224
92 95 95 94 101 101 98 124 150 174 206 224 234 255 275 279 283 286 284 284 286 286 285 281 277 275 276 277 279 279 278 276 274 274 274 272 272 273 275 276 274 271 267 261 257 254 249 242 238 241 248 266 271 264 259 248 237 236 232 225 225 222
82 83 84 84 89 85 80 105 135 143 182 221 231 258 287 289 287 290 293 296 297 296 294 290 281 273 272 276 281 282 282 281 280 282 283 279 277 277 277 278 275 271 268 260 256 253 246 241 236 233 238 263 269 266 259 249 240 238 235 228 226 222
76 77 79 82 88 89 94 107 121 136 197 228 259 305 323 332 320 308 305 306 309 308 302 294 282 273 273 279 282 280 280 281 281 284 285 282 281 281 280 281 278 272 266 259 258 257 251 244 236 227 213 239 226 191 243 238 233 236 235 230 229 226
74 74 75 79 86 92 97 98 98 91 79 73 51 15 1 3 357 340 328 323 322 316 304 295 287 283 286 286 283 283 285 287 288 288 288 287 287 286 285 282 278 272 262 254 255 259 257 248 239 232 221 211 194 197 248 225 219 238 232 227 229 227
69 67 67 71 79 89 90 84 82 74 65 62 52 38 30 24 20 14 6 356 348 340 333 321 306 303 306 298 288 287 289 291 295 294 293 293 288 284 286 281 273 270 265 257 250 250 254 249 243 237 228 224 222 215 214 193 185 251 231 225 227 226
61 62 62 65 71 83 85 78 75 71 66 61 51 42 42 41 37 32 31 29 25 21 13 360 339 327 329 325 312 304 299 295 297 297 298 297 286 278 285 286 279 276 274 263 248 240 246 248 242 235 229 225 223 219 215 205 191 184 224 227 225 224
57 60 60 62 65 70 74 72 69 67 65 62 53 46 43 42 39 35 35 35 34 36 35 27 12 355 349 347 342 335 326 311 303 302 302 299 291 285 288 291 288 284 278 268 256 244 242 241 237 234 229 223 222 219 217 222 223 209 169 212 222 222
62 62 58 60 61 61 61 60 57 55 55 55 51 46 41 36 33 31 31 30 29 29 32 34 28 15 4 358 353 348 343 330 317 314 310 303 297 294 293 293 291 287 281 275 271 259 247 240 237 237 233 226 225 221 220 230 237 234 226 227 222 215
67 64 62 63 66 65 61 55 52 48 45 43 39 35 32 29 26 26 26 25 22 20 20 24 25 21 15 9 2 353 348 344 335 329 322 314 307 302 299 298 297 294 290 287 284 273 261 255 246 238 232 224 219 215 215 226 231 226 227 232 232 222
71 66 64 67 71 70 67 63 59 54 49 44 39 33 30 27 24 25 25 21 16 12 12 14 13 14 14 12 8 2 357 353 349 344 337 329 320 311 307 305 302 300 298 297 295 287 276 270 257 241 232 225 219 214 209 213 218 215 213 218 222 223
80 70 66 68 72 70 68 68 65 60 59 55 49 44 38 32 29 27 24 19 15 12 10 5 2 6 8 7 6 5 3 1 357 353 348 342 332 323 315 308 304 302 300 298 295 291 285 279 264 245 235 229 226 222 217 219 222 217 215 216 216 223
84 74 70 72 73 72 72 73 67 61 60 59 55 51 46 41 38 33 28 24 21 18 15 8 3 5 5 3 3 2 2 2 359 355 352 347 342 335 325 314 309 304 301 299 295 291 288 283 272 253 240 234 229 227 226 228 229 222 220 221 220 230
86 77 75 74 74 74 75 72 67 62 62 60 55 52 49 45 43 39 34 31 26 23 21 15 10 7 5 5 4 4 3 2 1 359 355 350 346 342 336 327 319 312 306 302 298 294 290 286 277 261 245 237 232 232 234 235 233 227 223 222 217 217
88 81 77 75 73 73 73 70 68 67 66 62 57 54 52 49 48 43 36 33 30 27 24 19 14 11 10 9 6 5 5 3 4 5 2 357 352 346 342 335 329 324 318 312 304 299 299 292 279 262 244 237 233 233 236 237 236 231 227 226 221 216
85 81 78 75 73 71 71 70 69 68 66 64 59 56 54 52 52 49 42 37 32 28 25 21 18 14 13 12 8 5 3 1 5 9 7 2 358 352 345 339 334 330 325 321 315 307 304 297 282 265 248 242 239 236 238 240 238 235 233 232 230 225
84 80 78 75 73 72 72 70 68 67 65 63 60 56 54 52 52 51 46 41 34 29 27 24 21 18 15 12 7 5 3 2 6 12 9 2 359 358 354 348 341 336 331 325 317 310 306 299 289 277 261 252 246 242 243 242 238 236 235 234 235 232